Weather Roundup
Issued by NWS Chicago, IL

Home | Current Version | Previous Version | Graphics & Text | Print | Product List | Glossary On
Versions: 1 2 3 4 5 6 7 8 9 10 11 12 13 14 15 16 17 18 19 20 21 22 23 24 25 26 27 28 29 30 31 32 33 34 35 36 37 38 39 40 41 42 43 44 45 46 47 48 49 50
000
NZUS59 KLOT 230100
HRRLOT

CHICAGO AREA WEATHER ROUNDUP
NATIONAL WEATHER SERVICE CHICAGO/ROMEOVILLE IL
800 PM CDT TUE JUL 22 2014

NOTE: "FAIR" INDICATES FEW OR NO CLOUDS BELOW 12,000 FEET WITH NO
SIGNIFICANT WEATHER AND/OR OBSTRUCTIONS TO VISIBILITY.

* THESE STATIONS ARE NOT UNDER NWS QUALITY CONTROL. THEY ALSO MAY NOT
  REPORT WEATHER SUCH AS PRECIPITATION OR FOG.

ILZ005-006-012>014-019>023-230200-
NORTHEAST ILLINOIS

CITY           SKY/WX    TMP DP  RH WIND       PRES   REMARKS
OHARE          MOCLDY    86  72  62 W12       29.94S HX  92
MIDWAY         PTCLDY    87  75  67 SW12      29.94S HX  96
AURORA         MOCLDY    84  75  74 SW7       29.96S HX  92
LANSING*       CLOUDY    83  72  69 SW7       29.97R HX  88
WAUKEGAN       PTCLDY    85  75  72 VRB6      29.93S HX  93
DUPAGE AIRPORT MOCLDY    85  75  72 SW12      29.95S HX  93
WHEELING       MOCLDY    88  74  63 SW7       29.95S HX  96
NORTHERLY IS     N/A     85  72  65 SW6         N/A  HX  91
$$

WIZ051-052-058>065-066-070>072-230200-
SOUTHEAST WISCONSIN

CITY           SKY/WX    TMP DP  RH WIND       PRES   REMARKS
MILWAUKEE      MOCLDY    86  76  71 W9        29.91S HX  96
KENOSHA*       PTCLDY    83  77  82 SW6       29.93S HX  92
RACINE*        PTCLDY    85  76  74 W5        29.94S HX  94
WAUKESHA       CLOUDY    82  72  69 NW10G20   29.95R HX  87
$$

INZ001>003-010>013-019-020-230200-
NORTHWEST INDIANA

CITY           SKY/WX    TMP DP  RH WIND       PRES   REMARKS
GARY*          CLOUDY    84  73  70 SW8       29.96S HX  91
MICHIGAN CITY* NOT AVBL
RENSSELAER*    NOT AVBL
VALPARAISO     CLEAR     81  71  71 SW9       29.98F HX  85
$$

LMZ740>746-230200-
SOUTHERN LAKE MICHIGAN

STATION/POSITION TIME  SKY/WX   TEMP WIND        PRES    VSBY
                                AIR  DIR/SP/G
                 (UTC)          (F)  (DEG/KT/KT) (MB)    (MI)
HARRISON CRIB    0000            84  210/ 16/ 19   N/A
BURNHAM HARBOR   0100            85  200/  6/ 15   N/A
CALUMET HARBOR   0000            84  210/  9/ 13 1013.2R
BURNS HARBOR     NOT AVBL
MICHIGAN CITY    0000            83  180/ 12/ 17   N/A
$$

ABBREVIATIONS USED IN REMARKS
   TC - TEMPERATURE IN CELSIUS
  WCI - WIND CHILL INDEX
   HX - HEAT INDEX
  VSB - VISIBILITY
$$


USA.gov is the U.S. government's official web portal to all federal, state and local government web resources and services.